Time,TemperatureF,DewpointF,PressureIn,WindDirection,WindDirectionDegrees,WindSpeedMPH,WindSpeedGustMPH,Humidity,HourlyPrecipIn,Conditions,Clouds,dailyrainin,SoftwareType,DateUTC
2013-03-24 00:00:00,40.8,22.6,29.96,West,270,0.8,5.1,48,0.00,,,0.00,VWS V13.00,2013-03-24 04:00:00,
2013-03-24 00:05:00,40.6,22.5,29.97,NW,315,0.0,0.8,48,0.00,,,0.00,VWS V13.00,2013-03-24 04:05:00,
2013-03-24 00:10:00,40.2,22.1,29.96,NW,315,0.0,3.3,48,0.00,,,0.00,VWS V13.00,2013-03-24 04:10:00,
2013-03-24 00:15:00,40.2,22.6,29.96,NW,315,7.6,7.6,49,0.00,,,0.00,VWS V13.00,2013-03-24 04:15:00,
2013-03-24 00:20:00,40.1,22.5,29.96,NNW,338,3.1,7.6,49,0.00,,,0.00,VWS V13.00,2013-03-24 04:20:00,
2013-03-24 00:25:00,40.1,22.5,29.96,NNW,338,5.8,7.6,49,0.00,,,0.00,VWS V13.00,2013-03-24 04:25:00,
2013-03-24 00:30:00,40.1,22.5,29.97,NNW,338,4.9,7.6,49,0.00,,,0.00,VWS V13.00,2013-03-24 04:30:00,
2013-03-24 00:35:00,39.9,22.3,29.97,WNW,292,0.0,7.6,49,0.00,,,0.00,VWS V13.00,2013-03-24 04:35:00,
2013-03-24 00:40:00,39.9,22.3,29.97,WSW,248,2.0,7.6,49,0.00,,,0.00,VWS V13.00,2013-03-24 04:40:00,
2013-03-24 00:45:00,39.7,22.1,29.98,WNW,292,0.0,2.0,49,0.00,,,0.00,VWS V13.00,2013-03-24 04:45:00,
2013-03-24 00:50:00,39.5,21.9,29.97,NNW,338,0.0,2.0,49,0.00,,,0.00,VWS V13.00,2013-03-24 04:50:00,
2013-03-24 00:55:00,39.3,22.2,29.97,NNW,338,0.0,2.0,50,0.00,,,0.00,VWS V13.00,2013-03-24 04:55:00,
2013-03-24 01:00:00,39.2,22.1,29.97,North,0,2.4,2.4,50,0.00,,,0.00,VWS V13.00,2013-03-24 05:00:00,
2013-03-24 01:05:00,39.0,22.0,29.97,NNW,338,0.0,2.4,50,0.00,,,0.00,VWS V13.00,2013-03-24 05:05:00,
2013-03-24 01:10:00,39.0,22.4,29.97,WSW,248,0.0,2.4,51,0.00,,,0.00,VWS V13.00,2013-03-24 05:10:00,
2013-03-24 01:15:00,39.0,22.4,29.97,WNW,292,0.0,2.4,51,0.00,,,0.00,VWS V13.00,2013-03-24 05:15:00,
2013-03-24 01:20:00,39.0,22.4,29.97,WNW,292,1.5,1.5,51,0.00,,,0.00,VWS V13.00,2013-03-24 05:20:00,
2013-03-24 01:25:00,38.8,22.2,29.97,NW,315,2.0,3.1,51,0.00,,,0.00,VWS V13.00,2013-03-24 05:25:00,
2013-03-24 01:30:00,38.8,22.2,29.97,WNW,292,0.0,3.1,51,0.00,,,0.00,VWS V13.00,2013-03-24 05:30:00,
2013-03-24 01:35:00,38.4,22.3,29.97,NNW,338,3.5,3.5,52,0.00,,,0.00,VWS V13.00,2013-03-24 05:35:00,
2013-03-24 01:40:00,38.4,22.3,29.97,WNW,292,3.3,3.3,52,0.00,,,0.00,VWS V13.00,2013-03-24 05:40:00,
2013-03-24 01:46:00,38.4,22.3,29.97,NNW,338,4.2,4.2,52,0.00,,,0.00,VWS V13.00,2013-03-24 05:46:00,
2013-03-24 01:51:00,38.4,21.9,29.97,WNW,292,0.8,4.6,51,0.00,,,0.00,VWS V13.00,2013-03-24 05:51:00,
2013-03-24 01:56:00,38.4,21.9,29.97,NW,315,1.1,4.9,51,0.00,,,0.00,VWS V13.00,2013-03-24 05:56:00,
2013-03-24 02:01:00,38.4,21.9,29.97,North,0,2.9,2.9,51,0.00,,,0.00,VWS V13.00,2013-03-24 06:01:00,
2013-03-24 02:06:00,38.4,22.3,29.97,WNW,292,2.0,3.3,52,0.00,,,0.00,VWS V13.00,2013-03-24 06:06:00,
2013-03-24 02:11:00,38.4,21.9,29.96,WSW,248,0.0,3.3,51,0.00,,,0.00,VWS V13.00,2013-03-24 06:11:00,
2013-03-24 02:17:00,38.3,21.8,29.95,NNW,338,3.8,9.3,51,0.00,,,0.00,VWS V13.00,2013-03-24 06:17:00,
2013-03-24 02:22:00,38.3,21.8,29.95,NNW,338,4.9,4.9,51,0.00,,,0.00,VWS V13.00,2013-03-24 06:22:00,
2013-03-24 02:27:00,38.3,21.8,29.97,North,0,5.5,9.3,51,0.00,,,0.00,VWS V13.00,2013-03-24 06:27:00,
2013-03-24 02:32:00,38.4,21.9,29.98,NNW,338,0.6,9.3,51,0.00,,,0.00,VWS V13.00,2013-03-24 06:32:00,
2013-03-24 02:37:00,38.4,21.9,29.99,NNW,338,1.5,9.3,51,0.00,,,0.00,VWS V13.00,2013-03-24 06:37:00,
2013-03-24 02:42:00,38.4,21.9,29.98,WNW,292,4.0,4.0,51,0.00,,,0.00,VWS V13.00,2013-03-24 06:42:00,
2013-03-24 02:47:00,38.3,21.8,29.98,NNW,338,0.0,4.0,51,0.00,,,0.00,VWS V13.00,2013-03-24 06:47:00,
2013-03-24 02:52:00,37.9,21.9,29.98,NW,315,0.0,4.0,52,0.00,,,0.00,VWS V13.00,2013-03-24 06:52:00,
2013-03-24 02:57:00,37.9,21.9,29.98,NNW,338,3.8,4.0,52,0.00,,,0.00,VWS V13.00,2013-03-24 06:57:00,
2013-03-24 03:02:00,37.9,21.9,29.97,NNE,22,0.0,0.0,52,0.00,,,0.00,VWS V13.00,2013-03-24 07:02:00,
2013-03-24 03:07:00,37.5,21.5,29.96,NW,315,0.0,0.0,52,0.00,,,0.00,VWS V13.00,2013-03-24 07:07:00,
2013-03-24 03:12:00,37.2,21.2,29.97,WNW,292,2.4,2.4,52,0.00,,,0.00,VWS V13.00,2013-03-24 07:12:00,
2013-03-24 03:17:00,37.0,21.0,29.97,NW,315,0.0,2.4,52,0.00,,,0.00,VWS V13.00,2013-03-24 07:17:00,
2013-03-24 03:22:00,36.6,20.6,29.97,NW,315,0.8,14.3,52,0.00,,,0.00,VWS V13.00,2013-03-24 07:22:00,
2013-03-24 03:27:00,36.3,20.4,29.96,North,0,3.8,14.3,52,0.00,,,0.00,VWS V13.00,2013-03-24 07:27:00,
2013-03-24 03:32:00,36.3,20.4,29.96,NW,315,1.5,14.3,52,0.00,,,0.00,VWS V13.00,2013-03-24 07:32:00,
2013-03-24 03:37:00,36.1,20.2,29.96,NNE,22,7.1,14.3,52,0.00,,,0.00,VWS V13.00,2013-03-24 07:37:00,
2013-03-24 03:42:00,36.1,20.6,29.97,NNW,338,6.0,8.5,53,0.00,,,0.00,VWS V13.00,2013-03-24 07:42:00,
2013-03-24 03:48:00,36.1,20.6,29.97,North,0,7.8,8.5,53,0.00,,,0.00,VWS V13.00,2013-03-24 07:48:00,
2013-03-24 03:53:00,36.3,20.4,29.96,NNW,338,2.4,8.5,52,0.00,,,0.00,VWS V13.00,2013-03-24 07:53:00,
2013-03-24 03:58:00,36.3,20.4,29.96,NNW,338,5.8,8.5,52,0.00,,,0.00,VWS V13.00,2013-03-24 07:58:00,
2013-03-24 04:03:00,36.3,20.4,29.96,NNW,338,4.0,4.0,52,0.00,,,0.00,VWS V13.00,2013-03-24 08:03:00,
2013-03-24 04:08:00,36.3,19.9,29.96,WNW,292,2.4,7.1,51,0.00,,,0.00,VWS V13.00,2013-03-24 08:08:00,
2013-03-24 04:13:00,36.3,19.9,29.96,NW,315,5.1,7.1,51,0.00,,,0.00,VWS V13.00,2013-03-24 08:13:00,
2013-03-24 04:18:00,36.3,19.9,29.96,North,0,5.3,7.1,51,0.00,,,0.00,VWS V13.00,2013-03-24 08:18:00,
2013-03-24 04:23:00,36.3,19.9,29.97,North,0,7.3,7.3,51,0.00,,,0.00,VWS V13.00,2013-03-24 08:23:00,
2013-03-24 04:28:00,36.3,19.9,29.96,NNE,22,3.5,7.3,51,0.00,,,0.00,VWS V13.00,2013-03-24 08:28:00,
2013-03-24 04:33:00,36.5,20.1,29.96,North,0,3.8,7.3,51,0.00,,,0.00,VWS V13.00,2013-03-24 08:33:00,
2013-03-24 04:38:00,36.6,20.2,29.96,NNW,338,0.6,7.3,51,0.00,,,0.00,VWS V13.00,2013-03-24 08:38:00,
2013-03-24 04:43:00,36.8,20.8,29.97,WSW,248,0.0,5.1,52,0.00,,,0.00,VWS V13.00,2013-03-24 08:43:00,
2013-03-24 04:48:00,36.8,20.8,29.97,NW,315,4.4,5.1,52,0.00,,,0.00,VWS V13.00,2013-03-24 08:48:00,
2013-03-24 04:53:00,36.6,20.6,29.98,West,270,0.0,5.1,52,0.00,,,0.00,VWS V13.00,2013-03-24 08:53:00,
2013-03-24 04:58:00,36.6,21.1,29.98,West,270,0.0,5.1,53,0.00,,,0.00,VWS V13.00,2013-03-24 08:58:00,
2013-03-24 05:03:00,36.5,21.0,29.98,West,270,0.0,0.0,53,0.00,,,0.00,VWS V13.00,2013-03-24 09:03:00,
2013-03-24 05:08:00,36.3,21.3,29.99,WNW,292,1.1,1.1,54,0.00,,,0.00,VWS V13.00,2013-03-24 09:08:00,
2013-03-24 05:13:00,36.1,21.1,29.99,West,270,0.0,2.2,54,0.00,,,0.00,VWS V13.00,2013-03-24 09:13:00,
2013-03-24 05:18:00,35.9,20.9,29.99,West,270,0.0,2.2,54,0.00,,,0.00,VWS V13.00,2013-03-24 09:18:00,
2013-03-24 05:23:00,35.7,20.7,29.99,NNW,338,0.0,0.0,54,0.00,,,0.00,VWS V13.00,2013-03-24 09:23:00,
2013-03-24 05:28:00,35.7,20.7,29.99,West,270,0.0,0.0,54,0.00,,,0.00,VWS V13.00,2013-03-24 09:28:00,
2013-03-24 05:33:00,35.6,20.6,29.99,West,270,0.0,0.0,54,0.00,,,0.00,VWS V13.00,2013-03-24 09:33:00,
2013-03-24 05:38:00,35.4,20.4,29.99,NW,315,0.0,0.0,54,0.00,,,0.00,VWS V13.00,2013-03-24 09:38:00,
2013-03-24 05:43:00,35.2,20.2,29.99,North,0,0.0,0.0,54,0.00,,,0.00,VWS V13.00,2013-03-24 09:43:00,
2013-03-24 05:48:00,35.2,20.7,29.99,SW,225,0.0,2.9,55,0.00,,,0.00,VWS V13.00,2013-03-24 09:48:00,
2013-03-24 05:53:00,35.4,20.9,30.00,WSW,248,0.0,2.9,55,0.00,,,0.00,VWS V13.00,2013-03-24 09:53:00,
2013-03-24 05:58:00,35.4,20.9,30.00,SSE,158,0.0,2.9,55,0.00,,,0.00,VWS V13.00,2013-03-24 09:58:00,
2013-03-24 06:03:00,35.4,21.3,30.00,North,0,0.0,0.0,56,0.00,,,0.00,VWS V13.00,2013-03-24 10:03:00,
2013-03-24 06:08:00,35.2,21.1,29.99,North,0,0.0,2.2,56,0.00,,,0.00,VWS V13.00,2013-03-24 10:08:00,
2013-03-24 06:13:00,35.2,21.1,29.99,West,270,0.0,2.2,56,0.00,,,0.00,VWS V13.00,2013-03-24 10:13:00,
2013-03-24 06:18:00,35.2,21.1,29.99,North,0,3.8,3.8,56,0.00,,,0.00,VWS V13.00,2013-03-24 10:18:00,
2013-03-24 06:23:00,35.4,21.3,29.98,WNW,292,0.0,0.0,56,0.00,,,0.00,VWS V13.00,2013-03-24 10:23:00,
2013-03-24 06:28:00,35.4,21.3,29.98,NW,315,0.0,0.0,56,0.00,,,0.00,VWS V13.00,2013-03-24 10:28:00,
2013-03-24 06:33:00,35.2,20.7,29.98,NNW,338,0.0,0.0,55,0.00,,,0.00,VWS V13.00,2013-03-24 10:33:00,
2013-03-24 06:38:00,35.2,21.1,29.98,WSW,248,0.0,2.0,56,0.00,,,0.00,VWS V13.00,2013-03-24 10:38:00,
2013-03-24 06:43:00,35.2,21.1,29.98,North,0,0.0,0.0,56,0.00,,,0.00,VWS V13.00,2013-03-24 10:43:00,
2013-03-24 06:48:00,35.4,21.3,29.98,WSW,248,0.0,0.0,56,0.00,,,0.00,VWS V13.00,2013-03-24 10:48:00,
2013-03-24 06:53:00,34.8,20.7,29.98,WNW,292,0.0,0.0,56,0.00,,,0.00,VWS V13.00,2013-03-24 10:53:00,
2013-03-24 06:58:00,34.8,20.7,29.98,NW,315,0.0,0.0,56,0.00,,,0.00,VWS V13.00,2013-03-24 10:58:00,
2013-03-24 07:03:00,34.8,20.7,29.98,WNW,292,0.0,0.0,56,0.00,,,0.00,VWS V13.00,2013-03-24 11:03:00,
2013-03-24 07:08:00,34.8,20.7,29.98,South,180,0.0,0.0,56,0.00,,,0.00,VWS V13.00,2013-03-24 11:08:00,
2013-03-24 07:13:00,34.8,20.7,29.98,NW,315,0.0,0.0,56,0.00,,,0.00,VWS V13.00,2013-03-24 11:13:00,
2013-03-24 07:18:00,35.2,21.1,29.98,WSW,248,0.0,0.0,56,0.00,,,0.00,VWS V13.00,2013-03-24 11:18:00,
2013-03-24 07:23:00,35.2,21.1,29.98,WNW,292,0.0,0.0,56,0.00,,,0.00,VWS V13.00,2013-03-24 11:23:00,
2013-03-24 07:28:00,35.2,21.1,29.98,NE,45,0.0,0.8,56,0.00,,,0.00,VWS V13.00,2013-03-24 11:28:00,
2013-03-24 07:33:00,35.4,21.3,29.98,NNW,338,0.0,1.3,56,0.00,,,0.00,VWS V13.00,2013-03-24 11:33:00,
2013-03-24 07:38:00,35.4,21.3,29.98,West,270,0.0,1.3,56,0.00,,,0.00,VWS V13.00,2013-03-24 11:38:00,
2013-03-24 07:43:00,35.6,21.5,29.98,WNW,292,0.0,0.0,56,0.00,,,0.00,VWS V13.00,2013-03-24 11:43:00,
2013-03-24 07:49:00,35.7,21.6,29.99,WSW,248,0.0,0.0,56,0.00,,,0.00,VWS V13.00,2013-03-24 11:49:00,
2013-03-24 07:54:00,35.9,21.8,29.98,West,270,0.0,0.0,56,0.00,,,0.00,VWS V13.00,2013-03-24 11:54:00,
2013-03-24 07:59:00,36.3,22.1,29.98,WNW,292,0.0,0.0,56,0.00,,,0.00,VWS V13.00,2013-03-24 11:59:00,
2013-03-24 08:04:00,36.5,22.3,29.98,NNW,338,2.2,2.2,56,0.00,,,0.00,VWS V13.00,2013-03-24 12:04:00,
2013-03-24 08:09:00,36.8,22.6,29.98,NW,315,0.0,6.0,56,0.00,,,0.00,VWS V13.00,2013-03-24 12:09:00,
2013-03-24 08:14:00,37.2,23.0,29.98,NNW,338,1.5,6.0,56,0.00,,,0.00,VWS V13.00,2013-03-24 12:14:00,
2013-03-24 08:19:00,37.5,22.8,29.98,West,270,0.6,6.0,55,0.00,,,0.00,VWS V13.00,2013-03-24 12:19:00,
2013-03-24 08:24:00,37.9,23.2,29.98,NW,315,2.2,2.2,55,0.00,,,0.00,VWS V13.00,2013-03-24 12:24:00,
2013-03-24 08:29:00,38.1,23.4,29.98,SE,135,0.0,2.2,55,0.00,,,0.00,VWS V13.00,2013-03-24 12:29:00,
2013-03-24 08:34:00,38.4,23.2,29.98,NW,315,2.6,2.6,54,0.00,,,0.00,VWS V13.00,2013-03-24 12:34:00,
2013-03-24 08:39:00,38.6,23.4,29.99,NNE,22,0.0,2.6,54,0.00,,,0.00,VWS V13.00,2013-03-24 12:39:00,
2013-03-24 08:44:00,39.0,23.8,29.99,North,0,3.3,3.3,54,0.00,,,0.00,VWS V13.00,2013-03-24 12:44:00,
2013-03-24 08:49:00,39.3,24.1,29.98,West,270,0.0,3.3,54,0.00,,,0.00,VWS V13.00,2013-03-24 12:49:00,
2013-03-24 08:54:00,39.7,24.0,29.98,NNW,338,0.0,3.3,53,0.00,,,0.00,VWS V13.00,2013-03-24 12:54:00,
2013-03-24 08:59:00,40.1,23.9,29.98,NNW,338,6.9,6.9,52,0.00,,,0.00,VWS V13.00,2013-03-24 12:59:00,
2013-03-24 09:04:00,40.6,23.9,29.98,NNW,338,2.2,6.7,51,0.00,,,0.00,VWS V13.00,2013-03-24 13:04:00,
2013-03-24 09:09:00,40.8,24.1,29.99,WNW,292,1.1,6.9,51,0.00,,,0.00,VWS V13.00,2013-03-24 13:09:00,
2013-03-24 09:14:00,41.3,24.1,29.98,NW,315,4.4,6.9,50,0.00,,,0.00,VWS V13.00,2013-03-24 13:14:00,
2013-03-24 09:19:00,41.5,23.8,29.98,NW,315,2.9,6.9,49,0.00,,,0.00,VWS V13.00,2013-03-24 13:19:00,
2013-03-24 09:25:00,41.9,24.1,29.98,NW,315,10.5,10.5,49,0.00,,,0.00,VWS V13.00,2013-03-24 13:25:00,
2013-03-24 09:30:00,41.9,23.7,29.97,NNW,338,6.4,10.7,48,0.00,,,0.00,VWS V13.00,2013-03-24 13:30:00,
2013-03-24 09:34:00,41.7,23.5,29.96,WNW,292,0.0,10.7,48,0.00,,,0.00,VWS V13.00,2013-03-24 13:34:00,
2013-03-24 09:40:00,41.7,23.0,29.96,NW,315,4.0,10.7,47,0.00,,,0.00,VWS V13.00,2013-03-24 13:40:00,
2013-03-24 09:45:00,42.0,23.2,29.95,NW,315,4.9,4.9,47,0.00,,,0.00,VWS V13.00,2013-03-24 13:45:00,
2013-03-24 09:50:00,42.4,23.1,29.95,NNE,22,3.1,8.5,46,0.00,,,0.00,VWS V13.00,2013-03-24 13:50:00,
2013-03-24 09:55:00,42.6,22.8,29.94,NNE,22,8.0,8.5,45,0.00,,,0.00,VWS V13.00,2013-03-24 13:55:00,
2013-03-24 10:00:00,42.9,23.0,29.94,NW,315,5.1,8.5,45,0.00,,,0.00,VWS V13.00,2013-03-24 14:00:00,
2013-03-24 10:05:00,44.4,23.9,29.94,North,0,3.1,6.4,44,0.00,,,0.00,VWS V13.00,2013-03-24 14:05:00,
2013-03-24 10:10:00,46.0,24.2,29.94,NNW,338,8.2,8.2,42,0.00,,,0.00,VWS V13.00,2013-03-24 14:10:00,
2013-03-24 10:15:00,47.1,24.0,29.94,North,0,10.2,10.2,40,0.00,,,0.00,VWS V13.00,2013-03-24 14:15:00,
2013-03-24 10:20:00,48.3,24.5,29.93,WNW,292,3.1,10.2,39,0.00,,,0.00,VWS V13.00,2013-03-24 14:20:00,
2013-03-24 10:25:00,48.7,24.2,29.93,NNE,22,3.5,7.1,38,0.00,,,0.00,VWS V13.00,2013-03-24 14:25:00,
2013-03-24 10:30:00,48.7,23.6,29.93,NNW,338,10.7,10.7,37,0.00,,,0.00,VWS V13.00,2013-03-24 14:30:00,
2013-03-24 10:35:00,49.2,24.1,29.93,NNE,22,5.8,10.9,37,0.00,,,0.00,VWS V13.00,2013-03-24 14:35:00,
2013-03-24 10:40:00,49.8,24.6,29.92,NW,315,5.5,10.9,37,0.00,,,0.00,VWS V13.00,2013-03-24 14:40:00,
2013-03-24 10:45:00,50.7,24.7,29.92,NNW,338,8.7,8.7,36,0.00,,,0.00,VWS V13.00,2013-03-24 14:45:00,
2013-03-24 10:50:00,50.9,24.2,29.92,WNW,292,2.0,9.8,35,0.00,,,0.00,VWS V13.00,2013-03-24 14:50:00,
2013-03-24 10:55:00,50.7,24.1,29.92,WNW,292,1.7,9.8,35,0.00,,,0.00,VWS V13.00,2013-03-24 14:55:00,
2013-03-24 11:00:00,50.5,23.2,29.91,NNW,338,5.8,9.8,34,0.00,,,0.00,VWS V13.00,2013-03-24 15:00:00,
2013-03-24 11:05:00,49.8,23.3,29.92,NNW,338,6.2,9.6,35,0.00,,,0.00,VWS V13.00,2013-03-24 15:05:00,
2013-03-24 11:10:00,49.8,23.3,29.91,WNW,292,1.3,9.6,35,0.00,,,0.00,VWS V13.00,2013-03-24 15:10:00,
2013-03-24 11:15:00,50.1,23.5,29.91,NNW,338,4.4,9.6,35,0.00,,,0.00,VWS V13.00,2013-03-24 15:15:00,
2013-03-24 11:20:00,51.4,24.7,29.91,North,0,4.0,9.6,35,0.00,,,0.00,VWS V13.00,2013-03-24 15:20:00,
2013-03-24 11:25:00,52.3,24.8,29.91,North,0,0.0,5.5,34,0.00,,,0.00,VWS V13.00,2013-03-24 15:25:00,
2013-03-24 11:30:00,52.3,24.1,29.91,North,0,5.1,5.5,33,0.00,,,0.00,VWS V13.00,2013-03-24 15:30:00,
2013-03-24 11:35:00,52.7,24.4,29.91,North,0,2.4,7.8,33,0.00,,,0.00,VWS V13.00,2013-03-24 15:35:00,
2013-03-24 11:40:00,52.7,23.7,29.91,WSW,248,3.1,8.2,32,0.00,,,0.00,VWS V13.00,2013-03-24 15:40:00,
2013-03-24 11:45:00,52.5,23.5,29.90,NNW,338,0.0,6.9,32,0.00,,,0.00,VWS V13.00,2013-03-24 15:45:00,
2013-03-24 11:50:00,52.8,23.8,29.90,NNW,338,4.2,6.9,32,0.00,,,0.00,VWS V13.00,2013-03-24 15:50:00,
2013-03-24 11:55:00,52.8,23.0,29.90,NNW,338,2.0,6.9,31,0.00,,,0.00,VWS V13.00,2013-03-24 15:55:00,
2013-03-24 12:00:00,52.7,22.9,29.90,East,90,0.0,6.9,31,0.00,,,0.00,VWS V13.00,2013-03-24 16:00:00,
2013-03-24 12:05:00,52.3,22.6,29.89,West,270,0.0,2.9,31,0.00,,,0.00,VWS V13.00,2013-03-24 16:05:00,
2013-03-24 12:11:00,52.5,22.8,29.89,WNW,292,1.1,4.0,31,0.00,,,0.00,VWS V13.00,2013-03-24 16:11:00,
2013-03-24 12:16:00,53.4,23.5,29.89,NNE,22,4.0,4.0,31,0.00,,,0.00,VWS V13.00,2013-03-24 16:16:00,
2013-03-24 12:21:00,52.7,22.9,29.90,NNW,338,3.3,3.3,31,0.00,,,0.00,VWS V13.00,2013-03-24 16:21:00,
2013-03-24 12:26:00,52.3,22.6,29.89,NNW,338,2.2,3.3,31,0.00,,,0.00,VWS V13.00,2013-03-24 16:26:00,
2013-03-24 12:31:00,51.4,21.8,29.89,NW,315,6.2,6.2,31,0.00,,,0.00,VWS V13.00,2013-03-24 16:31:00,
2013-03-24 12:36:00,51.4,22.5,29.88,North,0,1.3,6.2,32,0.00,,,0.00,VWS V13.00,2013-03-24 16:36:00,
2013-03-24 12:41:00,51.0,22.2,29.88,West,270,4.0,4.0,32,0.00,,,0.00,VWS V13.00,2013-03-24 16:41:00,
2013-03-24 12:46:00,50.5,21.8,29.88,North,0,3.1,4.0,32,0.00,,,0.00,VWS V13.00,2013-03-24 16:46:00,
2013-03-24 12:51:00,50.1,21.4,29.88,North,0,1.1,4.0,32,0.00,,,0.00,VWS V13.00,2013-03-24 16:51:00,
2013-03-24 12:56:00,49.8,21.1,29.87,North,0,6.0,6.0,32,0.00,,,0.00,VWS V13.00,2013-03-24 16:56:00,
2013-03-24 13:01:00,49.6,21.7,29.86,WSW,248,0.0,0.0,33,0.00,,,0.00,VWS V13.00,2013-03-24 17:01:00,
2013-03-24 13:06:00,49.6,21.7,29.86,NW,315,0.0,0.0,33,0.00,,,0.00,VWS V13.00,2013-03-24 17:06:00,
2013-03-24 13:11:00,49.4,21.5,29.87,West,270,3.1,3.1,33,0.00,,,0.00,VWS V13.00,2013-03-24 17:11:00,
2013-03-24 13:17:00,49.8,22.6,29.86,NNW,338,1.1,3.1,34,0.00,,,0.00,VWS V13.00,2013-03-24 17:17:00,
2013-03-24 13:22:00,50.1,22.1,29.86,NW,315,2.9,2.9,33,0.00,,,0.00,VWS V13.00,2013-03-24 17:22:00,
2013-03-24 13:27:00,50.5,22.5,29.85,North,0,3.8,3.8,33,0.00,,,0.00,VWS V13.00,2013-03-24 17:27:00,
2013-03-24 13:32:00,50.7,22.7,29.85,ENE,68,2.4,3.8,33,0.00,,,0.00,VWS V13.00,2013-03-24 17:32:00,
2013-03-24 13:37:00,50.7,22.7,29.84,North,0,0.8,3.8,33,0.00,,,0.00,VWS V13.00,2013-03-24 17:37:00,
2013-03-24 13:43:00,50.7,22.7,29.83,SW,225,1.1,1.1,33,0.00,,,0.00,VWS V13.00,2013-03-24 17:43:00,
2013-03-24 13:48:00,49.8,23.3,29.83,ESE,112,2.2,2.6,35,0.00,,,0.00,VWS V13.00,2013-03-24 17:48:00,
2013-03-24 13:53:00,48.7,23.6,29.82,ESE,112,5.3,5.3,37,0.00,,,0.00,VWS V13.00,2013-03-24 17:53:00,
2013-03-24 13:58:00,47.1,23.4,29.82,NW,315,2.9,10.7,39,0.00,,,0.00,VWS V13.00,2013-03-24 17:58:00,
2013-03-24 14:03:00,44.9,23.8,29.82,SSW,202,4.6,6.7,43,0.00,,,0.00,VWS V13.00,2013-03-24 18:03:00,
2013-03-24 14:08:00,44.2,23.1,29.82,ESE,112,7.6,7.6,43,0.00,,,0.00,VWS V13.00,2013-03-24 18:08:00,
2013-03-24 14:13:00,44.0,23.5,29.81,SSE,158,2.2,7.6,44,0.00,,,0.00,VWS V13.00,2013-03-24 18:13:00,
2013-03-24 14:18:00,43.8,23.9,29.82,SSW,202,4.4,7.6,45,0.00,,,0.00,VWS V13.00,2013-03-24 18:18:00,
2013-03-24 14:23:00,43.8,23.9,29.81,ESE,112,5.8,6.9,45,0.00,,,0.00,VWS V13.00,2013-03-24 18:23:00,
2013-03-24 14:28:00,43.7,23.8,29.81,East,90,3.5,6.9,45,0.00,,,0.00,VWS V13.00,2013-03-24 18:28:00,
2013-03-24 14:33:00,43.8,23.9,29.80,ESE,112,1.3,6.9,45,0.00,,,0.00,VWS V13.00,2013-03-24 18:33:00,
2013-03-24 14:38:00,44.0,24.6,29.80,SE,135,7.6,7.6,46,0.00,,,0.00,VWS V13.00,2013-03-24 18:38:00,
2013-03-24 14:43:00,44.0,24.6,29.80,South,180,3.5,3.5,46,0.00,,,0.00,VWS V13.00,2013-03-24 18:43:00,
2013-03-24 14:48:00,44.0,24.0,29.80,ENE,68,0.0,3.5,45,0.00,,,0.00,VWS V13.00,2013-03-24 18:48:00,
2013-03-24 14:53:00,44.2,24.2,29.80,WNW,292,0.0,4.6,45,0.00,,,0.00,VWS V13.00,2013-03-24 18:53:00,
2013-03-24 14:58:00,44.2,24.2,29.80,West,270,0.0,5.3,45,0.00,,,0.00,VWS V13.00,2013-03-24 18:58:00,
2013-03-24 15:03:00,43.8,24.4,29.79,South,180,2.6,2.6,46,0.00,,,0.00,VWS V13.00,2013-03-24 19:03:00,
2013-03-24 15:08:00,43.3,23.9,29.78,ESE,112,0.0,9.3,46,0.00,,,0.00,VWS V13.00,2013-03-24 19:08:00,
2013-03-24 15:13:00,42.6,23.8,29.78,East,90,6.7,9.3,47,0.00,,,0.00,VWS V13.00,2013-03-24 19:13:00,
2013-03-24 15:18:00,41.7,23.0,29.78,ESE,112,10.5,10.5,47,0.00,,,0.00,VWS V13.00,2013-03-24 19:18:00,
2013-03-24 15:23:00,41.5,22.8,29.77,SE,135,9.6,9.6,47,0.00,,,0.00,VWS V13.00,2013-03-24 19:23:00,
2013-03-24 15:28:00,41.1,22.9,29.77,SSE,158,6.2,9.6,48,0.00,,,0.00,VWS V13.00,2013-03-24 19:28:00,
2013-03-24 15:33:00,41.5,23.8,29.77,SSW,202,1.7,9.6,49,0.00,,,0.00,VWS V13.00,2013-03-24 19:33:00,
2013-03-24 15:38:00,41.5,23.8,29.78,SE,135,3.3,9.6,49,0.00,,,0.00,VWS V13.00,2013-03-24 19:38:00,
2013-03-24 15:43:00,41.5,23.8,29.78,SE,135,3.1,3.1,49,0.00,,,0.00,VWS V13.00,2013-03-24 19:43:00,
2013-03-24 15:48:00,41.9,24.1,29.78,SE,135,0.0,3.1,49,0.00,,,0.00,VWS V13.00,2013-03-24 19:48:00,
2013-03-24 15:53:00,41.9,24.1,29.77,SSE,158,4.9,4.9,49,0.00,,,0.00,VWS V13.00,2013-03-24 19:53:00,
2013-03-24 15:58:00,41.9,24.1,29.77,SSE,158,3.8,4.9,49,0.00,,,0.00,VWS V13.00,2013-03-24 19:58:00,
2013-03-24 16:03:00,42.0,24.2,29.77,ESE,112,3.5,3.5,49,0.00,,,0.00,VWS V13.00,2013-03-24 20:03:00,
2013-03-24 16:08:00,42.0,24.7,29.77,SE,135,4.0,4.0,50,0.00,,,0.00,VWS V13.00,2013-03-24 20:08:00,
2013-03-24 16:13:00,42.0,24.7,29.77,SE,135,4.4,4.4,50,0.00,,,0.00,VWS V13.00,2013-03-24 20:13:00,
2013-03-24 16:18:00,41.9,24.6,29.76,South,180,2.9,4.4,50,0.00,,,0.00,VWS V13.00,2013-03-24 20:18:00,
2013-03-24 16:23:00,41.9,25.1,29.76,SSW,202,3.1,4.4,51,0.00,,,0.00,VWS V13.00,2013-03-24 20:23:00,
2013-03-24 16:28:00,41.9,25.1,29.76,SE,135,0.0,4.4,51,0.00,,,0.00,VWS V13.00,2013-03-24 20:28:00,
2013-03-24 16:34:00,41.7,25.4,29.76,South,180,3.5,4.4,52,0.00,,,0.00,VWS V13.00,2013-03-24 20:34:00,
2013-03-24 16:39:00,41.3,25.0,29.76,North,0,0.0,5.1,52,0.00,,,0.00,VWS V13.00,2013-03-24 20:39:00,
2013-03-24 16:44:00,41.1,24.8,29.76,SE,135,2.6,2.6,52,0.00,,,0.00,VWS V13.00,2013-03-24 20:44:00,
2013-03-24 16:49:00,41.1,25.3,29.75,South,180,0.0,2.6,53,0.00,,,0.00,VWS V13.00,2013-03-24 20:49:00,
2013-03-24 16:54:00,40.8,25.5,29.75,SSE,158,0.0,8.7,54,0.00,,,0.00,VWS V13.00,2013-03-24 20:54:00,
2013-03-24 16:59:00,40.8,25.5,29.76,SSW,202,3.3,8.7,54,0.00,,,0.00,VWS V13.00,2013-03-24 20:59:00,
2013-03-24 17:04:00,40.6,25.7,29.75,SE,135,6.9,7.6,55,0.00,,,0.00,VWS V13.00,2013-03-24 21:04:00,
2013-03-24 17:09:00,40.2,25.3,29.76,SE,135,2.0,7.6,55,0.00,,,0.00,VWS V13.00,2013-03-24 21:09:00,
2013-03-24 17:14:00,40.2,25.3,29.76,NNE,22,3.5,7.6,55,0.00,,,0.00,VWS V13.00,2013-03-24 21:14:00,
2013-03-24 17:19:00,40.2,25.3,29.75,NE,45,1.1,7.6,55,0.00,,,0.00,VWS V13.00,2013-03-24 21:19:00,
2013-03-24 17:24:00,39.9,25.1,29.75,SE,135,1.7,5.1,55,0.00,,,0.00,VWS V13.00,2013-03-24 21:24:00,
2013-03-24 17:29:00,39.9,25.1,29.75,NW,315,0.0,5.1,55,0.00,,,0.00,VWS V13.00,2013-03-24 21:29:00,
2013-03-24 17:34:00,40.1,25.2,29.75,NW,315,2.4,5.1,55,0.00,,,0.00,VWS V13.00,2013-03-24 21:34:00,
2013-03-24 17:39:00,40.1,25.2,29.74,SE,135,4.0,5.1,55,0.00,,,0.00,VWS V13.00,2013-03-24 21:39:00,
2013-03-24 17:44:00,40.1,25.2,29.75,NE,45,1.7,2.9,55,0.00,,,0.00,VWS V13.00,2013-03-24 21:44:00,
2013-03-24 17:49:00,40.2,25.3,29.74,NE,45,2.0,2.9,55,0.00,,,0.00,VWS V13.00,2013-03-24 21:49:00,
2013-03-24 17:54:00,40.2,25.8,29.74,NW,315,4.9,4.9,56,0.00,,,0.00,VWS V13.00,2013-03-24 21:54:00,
2013-03-24 17:59:00,40.2,25.3,29.74,West,270,0.0,5.1,55,0.00,,,0.00,VWS V13.00,2013-03-24 21:59:00,
2013-03-24 18:04:00,40.1,25.2,29.74,SSW,202,0.0,6.0,55,0.00,,,0.00,VWS V13.00,2013-03-24 22:04:00,
2013-03-24 18:09:00,40.1,25.2,29.74,NW,315,0.0,6.0,55,0.00,,,0.00,VWS V13.00,2013-03-24 22:09:00,
2013-03-24 18:14:00,40.1,25.2,29.75,East,90,0.0,6.0,55,0.00,,,0.00,VWS V13.00,2013-03-24 22:14:00,
2013-03-24 18:19:00,40.1,25.2,29.76,South,180,0.0,6.0,55,0.00,,,0.00,VWS V13.00,2013-03-24 22:19:00,
2013-03-24 18:24:00,40.1,25.2,29.76,SSE,158,3.1,3.8,55,0.00,,,0.00,VWS V13.00,2013-03-24 22:24:00,
2013-03-24 18:29:00,40.1,25.2,29.75,SSW,202,0.0,3.8,55,0.00,,,0.00,VWS V13.00,2013-03-24 22:29:00,
2013-03-24 18:34:00,40.1,25.7,29.76,ENE,68,3.3,3.8,56,0.00,,,0.00,VWS V13.00,2013-03-24 22:34:00,
2013-03-24 18:39:00,39.9,25.5,29.76,NNW,338,5.1,5.1,56,0.00,,,0.00,VWS V13.00,2013-03-24 22:39:00,
2013-03-24 18:44:00,39.9,25.9,29.76,SSW,202,0.0,7.1,57,0.00,,,0.00,VWS V13.00,2013-03-24 22:44:00,
2013-03-24 18:49:00,39.9,25.9,29.76,West,270,0.0,7.1,57,0.00,,,0.00,VWS V13.00,2013-03-24 22:49:00,
2013-03-24 18:54:00,39.9,25.9,29.75,ESE,112,0.6,7.1,57,0.00,,,0.00,VWS V13.00,2013-03-24 22:54:00,
2013-03-24 18:59:00,39.9,25.9,29.76,NNE,22,8.0,8.0,57,0.00,,,0.00,VWS V13.00,2013-03-24 22:59:00,
2013-03-24 19:04:00,39.7,25.7,29.77,NNE,22,0.0,0.0,57,0.00,,,0.00,VWS V13.00,2013-03-24 23:04:00,
2013-03-24 19:09:00,39.7,26.1,29.78,NE,45,3.5,3.5,58,0.00,,,0.00,VWS V13.00,2013-03-24 23:09:00,
2013-03-24 19:14:00,39.7,26.1,29.77,ENE,68,0.0,3.5,58,0.00,,,0.00,VWS V13.00,2013-03-24 23:14:00,
2013-03-24 19:19:00,39.9,26.8,29.77,NNE,22,1.1,3.5,59,0.00,,,0.00,VWS V13.00,2013-03-24 23:19:00,
2013-03-24 19:24:00,39.7,26.6,29.77,WNW,292,0.0,4.4,59,0.00,,,0.00,VWS V13.00,2013-03-24 23:24:00,
2013-03-24 19:29:00,39.7,26.6,29.78,West,270,0.0,4.4,59,0.00,,,0.00,VWS V13.00,2013-03-24 23:29:00,
2013-03-24 19:34:00,39.9,26.8,29.78,SSW,202,0.0,4.4,59,0.00,,,0.00,VWS V13.00,2013-03-24 23:34:00,
2013-03-24 19:39:00,39.9,26.8,29.78,East,90,1.5,4.4,59,0.00,,,0.00,VWS V13.00,2013-03-24 23:39:00,
2013-03-24 19:44:00,39.7,26.6,29.78,South,180,2.0,2.0,59,0.00,,,0.00,VWS V13.00,2013-03-24 23:44:00,
2013-03-24 19:49:00,39.7,27.0,29.78,SE,135,3.5,4.2,60,0.00,,,0.00,VWS V13.00,2013-03-24 23:49:00,
2013-03-24 19:54:00,39.7,27.0,29.78,East,90,0.0,4.2,60,0.00,,,0.00,VWS V13.00,2013-03-24 23:54:00,
2013-03-24 19:59:00,39.7,27.0,29.78,NNW,338,0.0,4.2,60,0.00,,,0.00,VWS V13.00,2013-03-24 23:59:00,
2013-03-24 20:04:00,39.7,27.0,29.77,SSE,158,0.0,0.0,60,0.00,,,0.00,VWS V13.00,2013-03-25 00:04:00,
2013-03-24 20:10:00,39.7,27.0,29.77,SE,135,5.8,5.8,60,0.00,,,0.00,VWS V13.00,2013-03-25 00:10:00,
2013-03-24 20:15:00,39.7,27.0,29.77,SSW,202,2.4,5.8,60,0.00,,,0.00,VWS V13.00,2013-03-25 00:15:00,
2013-03-24 20:20:00,39.7,27.4,29.77,SSE,158,8.2,8.2,61,0.00,,,0.00,VWS V13.00,2013-03-25 00:20:00,
2013-03-24 20:25:00,39.5,27.2,29.77,SSW,202,0.0,8.2,61,0.00,,,0.00,VWS V13.00,2013-03-25 00:25:00,
2013-03-24 20:30:00,39.5,27.2,29.77,ESE,112,0.0,8.2,61,0.00,,,0.00,VWS V13.00,2013-03-25 00:30:00,
2013-03-24 20:35:00,39.5,27.2,29.78,ESE,112,1.5,8.2,61,0.00,,,0.00,VWS V13.00,2013-03-25 00:35:00,
2013-03-24 20:40:00,39.5,27.6,29.78,South,180,3.5,8.2,62,0.00,,,0.00,VWS V13.00,2013-03-25 00:40:00,
2013-03-24 20:45:00,39.5,27.6,29.79,South,180,2.2,2.2,62,0.00,,,0.00,VWS V13.00,2013-03-25 00:45:00,
2013-03-24 20:50:00,39.5,27.6,29.79,SE,135,0.0,5.8,62,0.00,,,0.00,VWS V13.00,2013-03-25 00:50:00,
2013-03-24 20:55:00,39.5,27.6,29.79,SSE,158,0.0,5.8,62,0.00,,,0.00,VWS V13.00,2013-03-25 00:55:00,
2013-03-24 21:00:00,39.5,27.6,29.79,ESE,112,0.8,5.8,62,0.00,,,0.00,VWS V13.00,2013-03-25 01:00:00,
2013-03-24 21:05:00,39.5,28.0,29.79,SE,135,0.0,0.8,63,0.00,,,0.00,VWS V13.00,2013-03-25 01:05:00,
2013-03-24 21:10:00,39.5,28.0,29.79,ESE,112,0.0,0.8,63,0.00,,,0.00,VWS V13.00,2013-03-25 01:10:00,
2013-03-24 21:15:00,39.5,28.0,29.79,ESE,112,1.3,4.0,63,0.00,,,0.00,VWS V13.00,2013-03-25 01:15:00,
2013-03-24 21:20:00,39.5,28.0,29.79,SSE,158,0.0,4.0,63,0.00,,,0.00,VWS V13.00,2013-03-25 01:20:00,
2013-03-24 21:25:00,39.7,28.1,29.79,WSW,248,0.0,3.8,63,0.00,,,0.00,VWS V13.00,2013-03-25 01:25:00,
2013-03-24 21:30:00,39.7,28.1,29.79,South,180,2.6,3.8,63,0.00,,,0.00,VWS V13.00,2013-03-25 01:30:00,
2013-03-24 21:35:00,39.7,28.1,29.79,ENE,68,0.0,3.8,63,0.00,,,0.00,VWS V13.00,2013-03-25 01:35:00,
2013-03-24 21:40:00,39.7,28.1,29.78,SE,135,0.0,3.8,63,0.00,,,0.00,VWS V13.00,2013-03-25 01:40:00,
2013-03-24 21:45:00,39.7,28.1,29.78,South,180,0.0,0.0,63,0.00,,,0.00,VWS V13.00,2013-03-25 01:45:00,
2013-03-24 21:50:00,39.7,28.1,29.77,South,180,2.4,2.4,63,0.00,,,0.00,VWS V13.00,2013-03-25 01:50:00,
2013-03-24 21:55:00,39.7,28.5,29.77,South,180,2.0,2.4,64,0.00,,,0.00,VWS V13.00,2013-03-25 01:55:00,
2013-03-24 22:00:00,39.7,28.5,29.77,South,180,0.0,2.4,64,0.00,,,0.00,VWS V13.00,2013-03-25 02:00:00,
2013-03-24 22:05:00,39.7,28.5,29.77,South,180,1.5,1.5,64,0.00,,,0.00,VWS V13.00,2013-03-25 02:05:00,
2013-03-24 22:10:00,39.7,28.5,29.77,ESE,112,0.0,1.5,64,0.00,,,0.00,VWS V13.00,2013-03-25 02:10:00,
2013-03-24 22:15:00,39.7,28.5,29.77,South,180,0.0,1.5,64,0.00,,,0.00,VWS V13.00,2013-03-25 02:15:00,
2013-03-24 22:20:00,39.7,28.5,29.76,ESE,112,0.0,1.5,64,0.00,,,0.00,VWS V13.00,2013-03-25 02:20:00,
2013-03-24 22:25:00,39.7,28.5,29.76,SSE,158,0.0,0.0,64,0.00,,,0.00,VWS V13.00,2013-03-25 02:25:00,
2013-03-24 22:30:00,39.7,28.5,29.76,South,180,0.0,0.0,64,0.00,,,0.00,VWS V13.00,2013-03-25 02:30:00,
2013-03-24 22:35:00,39.9,28.7,29.75,SE,135,0.0,0.0,64,0.00,,,0.00,VWS V13.00,2013-03-25 02:35:00,
2013-03-24 22:40:00,39.9,28.7,29.75,ESE,112,0.0,0.0,64,0.00,,,0.00,VWS V13.00,2013-03-25 02:40:00,
2013-03-24 22:45:00,39.9,28.7,29.75,East,90,2.2,2.2,64,0.00,,,0.00,VWS V13.00,2013-03-25 02:45:00,
2013-03-24 22:50:00,39.9,28.7,29.74,ENE,68,0.8,2.2,64,0.00,,,0.00,VWS V13.00,2013-03-25 02:50:00,
2013-03-24 22:55:00,39.9,28.7,29.74,ESE,112,0.0,2.2,64,0.00,,,0.00,VWS V13.00,2013-03-25 02:55:00,
2013-03-24 23:00:00,39.9,28.7,29.74,NE,45,6.0,6.0,64,0.00,,,0.00,VWS V13.00,2013-03-25 03:00:00,
2013-03-24 23:05:00,39.9,28.7,29.74,NW,315,0.0,6.0,64,0.00,,,0.00,VWS V13.00,2013-03-25 03:05:00,
2013-03-24 23:10:00,39.9,28.7,29.73,NNE,22,3.5,6.0,64,0.00,,,0.00,VWS V13.00,2013-03-25 03:10:00,
2013-03-24 23:15:00,39.9,28.7,29.72,ESE,112,4.9,6.0,64,0.00,,,0.00,VWS V13.00,2013-03-25 03:15:00,
2013-03-24 23:20:00,39.9,28.7,29.72,SSW,202,4.9,6.0,64,0.00,,,0.00,VWS V13.00,2013-03-25 03:20:00,
2013-03-24 23:25:00,39.9,28.7,29.71,NE,45,6.9,6.9,64,0.00,,,0.00,VWS V13.00,2013-03-25 03:25:00,
2013-03-24 23:30:00,39.9,28.3,29.72,SSW,202,2.2,10.7,63,0.00,,,0.00,VWS V13.00,2013-03-25 03:30:00,
2013-03-24 23:35:00,39.7,28.1,29.71,ENE,68,4.4,10.7,63,0.00,,,0.00,VWS V13.00,2013-03-25 03:35:00,
2013-03-24 23:40:00,39.7,28.5,29.70,North,0,3.8,10.7,64,0.00,,,0.00,VWS V13.00,2013-03-25 03:40:00,
2013-03-24 23:45:00,39.7,28.5,29.69,ENE,68,3.8,6.2,64,0.00,,,0.00,VWS V13.00,2013-03-25 03:45:00,
2013-03-24 23:51:00,39.7,28.5,29.70,ESE,112,8.9,8.9,64,0.00,,,0.00,VWS V13.00,2013-03-25 03:51:00,
2013-03-24 23:56:00,39.7,28.5,29.70,NE,45,6.9,8.9,64,0.00,,,0.00,VWS V13.00,2013-03-25 03:56:00,